Theta_e
365 366 365 362 360 359 353 346 319 320 323 314 315 317 315 326 326 323 323 326 323 332 332 334 333 331 328 325 330 331 332 329 331 321 320 336 351 353 354 355 355 356 355 357 359 360 360 360 360 361 362 362 361 362 362 362 363 363 363 365 364 365 366 366 366 366 366 365 366 366 366 366 366 366 367 367 368 368 368 368 366 366 365 365 365 365 365 364 364 364 363 364 363 362 362 363 363
366 365 362 360 355 353 342 345 320 318 319 315 315 319 320 325 325 322 322 324 328 331 336 335 336 336 336 335 335 333 331 334 337 335 339 347 352 352 354 355 355 354 356 358 358 358 359 360 360 361 363 360 362 363 364 363 362 361 362 363 364 364 365 365 367 365 365 365 365 365 366 366 367 367 367 367 367 368 367 367 366 366 366 365 365 364 364 364 364 364 364 364 363 362 362 362 363
364 358 355 358 356 353 346 335 314 316 313 310 315 319 325 321 322 324 326 330 333 335 336 335 335 334 333 332 328 330 324 338 338 341 341 349 345 348 354 356 357 357 357 359 359 358 358 359 361 362 363 362 364 364 363 362 362 361 361 362 362 363 364 365 365 365 365 365 366 366 367 367 367 367 367 367 367 366 367 366 366 366 365 365 365 365 365 364 364 364 363 363 362 361 362 362 362
361 357 355 357 345 350 334 323 319 316 312 314 315 321 322 322 323 327 332 334 335 335 334 332 330 336 331 328 330 335 332 333 340 341 339 345 348 353 356 357 360 358 359 360 359 358 359 359 360 360 361 362 363 363 362 361 360 361 361 361 361 361 363 364 364 364 365 366 366 366 367 367 367 367 367 367 366 366 366 365 366 366 366 366 365 364 363 363 363 363 362 362 362 362 361 361 361
358 360 361 352 346 333 331 318 317 318 311 316 312 322 323 326 328 331 333 335 334 334 334 333 332 338 339 334 335 330 330 339 340 345 344 349 355 356 357 359 359 359 360 362 361 358 357 360 358 360 361 361 361 361 360 360 360 360 360 360 361 361 359 363 364 365 366 367 366 367 367 366 366 366 366 366 366 366 365 366 366 366 366 366 364 363 363 362 362 363 363 363 362 362 362 361 360
359 357 354 351 338 339 326 315 315 314 318 320 318 321 325 329 329 332 332 334 335 336 336 333 330 330 331 334 338 332 339 331 341 344 346 349 354 357 358 360 359 359 361 361 360 360 359 358 358 358 360 361 362 362 362 362 362 361 360 359 358 360 359 362 365 365 366 366 366 366 366 366 366 365 365 366 366 366 366 366 365 366 366 365 363 362 361 362 362 362 362 363 363 362 362 362 361
350 347 345 347 342 333 318 315 313 315 316 319 322 324 327 330 331 332 331 331 334 335 337 333 336 334 328 335 338 343 346 345 343 344 350 353 356 358 359 358 358 359 361 360 359 360 359 357 358 360 361 361 361 362 362 361 362 361 361 360 361 361 361 364 365 365 365 366 366 366 365 365 365 365 365 364 365 365 366 365 365 366 366 364 361 362 363 362 361 362 362 362 361 360 360 359 360
352 341 340 331 320 320 314 314 314 316 318 324 326 327 329 330 332 331 330 330 328 329 333 334 335 333 331 341 330 343 347 350 349 352 354 355 356 358 358 358 357 358 360 363 364 361 360 359 360 360 360 361 362 362 362 361 360 361 362 362 362 363 363 364 365 365 365 365 365 365 365 364 365 365 365 365 365 365 365 365 365 365 364 360 361 360 360 361 362 361 360 360 360 359 361 358 359
345 341 336 330 314 315 314 313 315 320 322 326 327 331 333 332 332 331 329 331 331 332 331 332 334 326 330 333 333 342 346 351 352 354 354 354 355 357 357 357 356 357 360 361 363 364 363 361 361 360 361 359 360 362 362 361 361 361 361 362 364 364 365 365 366 366 366 366 366 366 365 365 365 365 364 364 365 365 364 365 364 364 361 362 361 359 362 362 360 359 357 357 358 360 358 357 357
340 337 325 323 318 313 313 314 316 318 321 326 328 329 331 332 330 332 330 329 330 332 334 337 334 329 333 329 333 339 343 351 352 352 354 354 355 357 356 357 358 358 359 361 363 363 364 366 363 361 360 361 362 361 363 362 363 365 364 364 365 364 364 364 364 364 365 365 365 365 365 364 364 364 364 364 364 364 364 364 364 362 363 360 360 361 360 359 358 360 358 358 359 360 361 357 358
333 336 325 317 313 311 312 312 317 321 323 327 328 331 332 332 331 330 331 331 333 331 334 336 332 331 332 332 336 347 350 351 349 347 353 355 356 356 355 357 357 358 359 360 363 364 364 365 365 364 366 365 365 366 366 366 366 365 366 366 366 365 364 364 364 364 364 365 364 364 364 363 363 364 364 364 363 364 363 362 362 361 362 360 361 359 359 360 358 359 358 360 361 362 360 358 358
328 329 327 314 312 313 313 315 317 320 324 325 325 330 333 331 332 329 330 328 331 332 331 335 330 336 330 331 333 344 347 348 349 351 353 356 355 355 356 356 357 358 359 361 363 364 365 367 367 365 365 364 366 365 365 366 366 366 366 366 366 366 366 365 365 364 364 364 364 364 363 363 363 364 363 363 363 363 362 363 361 361 361 361 361 359 359 359 359 358 359 361 361 361 359 355 355
331 326 322 314 313 314 314 317 317 320 321 323 325 330 334 331 329 331 331 332 332 330 329 336 337 335 327 330 339 344 342 347 351 352 353 355 355 356 357 356 357 358 359 362 363 364 365 366 367 367 365 366 365 366 366 367 366 366 365 365 366 366 365 366 365 365 365 365 366 366 365 364 364 364 363 362 362 362 361 361 361 360 361 359 359 358 359 357 358 359 360 358 360 358 359 356 355
333 327 321 314 316 315 316 317 320 318 319 324 329 331 332 330 332 333 333 329 330 330 336 338 337 337 332 334 335 337 342 349 352 353 354 355 355 355 355 357 357 358 360 362 363 363 364 366 366 365 367 367 367 366 366 366 366 366 366 366 366 366 366 366 366 366 366 366 366 365 365 364 364 363 363 362 361 361 360 361 361 361 359 358 360 359 358 357 356 358 359 359 360 359 359 357 356
331 326 321 318 314 315 317 316 318 318 318 325 329 330 331 333 334 335 332 328 331 339 340 343 340 331 325 330 329 336 343 349 351 353 353 354 355 355 356 357 357 359 359 360 363 363 363 364 364 366 368 366 367 367 367 368 367 367 366 366 366 365 365 365 366 366 366 366 366 365 365 364 364 363 363 363 363 362 361 361 361 361 359 360 360 360 360 358 355 357 359 359 360 360 359 359 361
335 324 321 315 312 314 315 317 321 319 319 326 331 332 331 333 336 331 332 336 335 340 338 330 341 331 333 334 335 341 347 350 352 353 353 353 354 355 355 356 357 358 360 360 361 363 363 364 365 365 366 367 367 366 367 368 368 367 366 366 366 365 365 365 365 366 365 365 365 364 364 365 364 364 363 364 363 361 361 362 361 361 360 359 359 358 359 360 360 360 360 360 360 360 361 360 360
330 325 317 316 312 313 316 317 319 315 322 327 332 331 328 329 335 337 341 341 334 334 335 336 334 340 336 337 342 346 350 352 353 352 352 352 352 350 352 355 355 356 357 359 361 362 363 364 365 364 366 367 367 367 366 366 367 366 366 365 365 365 365 364 365 365 365 365 365 365 365 366 366 365 365 364 362 364 361 361 361 359 358 359 359 358 357 358 358 359 360 361 362 361 362 362 361
327 320 317 314 316 314 318 319 321 325 323 327 329 331 330 327 332 335 339 336 335 334 334 337 340 340 342 344 347 349 350 350 351 349 348 348 349 347 347 351 351 352 354 356 360 361 362 364 364 365 365 366 367 366 366 367 367 366 367 368 367 366 365 365 367 366 364 366 364 366 368 366 365 366 367 363 366 365 364 362 360 358 356 354 354 356 356 357 358 359 360 361 363 363 362 363 363
323 318 317 314 317 318 322 323 325 324 325 329 330 332 330 329 333 335 331 330 330 330 334 338 338 340 343 345 347 348 349 348 349 347 346 346 346 346 347 349 350 351 352 356 357 360 362 363 364 363 365 366 366 366 366 366 367 368 367 367 366 365 366 367 366 366 367 367 366 366 367 366 366 366 367 365 364 362 363 362 361 361 357 356 354 355 357 358 358 360 361 363 364 364 364 365 364
322 320 316 317 321 321 322 324 324 327 330 329 329 331 330 332 333 336 330 329 329 328 330 334 335 336 339 343 345 346 347 348 349 347 345 346 347 346 347 347 349 351 352 354 356 360 361 361 363 364 364 365 365 364 365 365 366 368 366 366 365 366 366 366 366 367 366 366 366 367 365 366 366 367 363 364 365 366 365 364 364 364 362 362 360 361 361 361 360 362 363 365 362 364 367 365 364
323 321 318 320 321 320 322 324 325 328 332 330 330 331 329 332 333 332 330 327 327 329 333 333 334 337 340 342 344 345 346 345 347 347 346 347 347 348 348 349 349 352 354 356 357 358 360 362 362 364 365 365 365 363 364 363 365 364 364 364 364 364 364 365 365 366 366 366 366 366 365 365 364 364 364 364 362 363 362 363 362 362 363 364 361 363 363 363 364 364 365 364 366 365 364 365 365
322 322 324 323 320 320 324 324 325 329 332 331 330 327 327 335 333 330 331 324 324 329 334 337 339 341 341 341 343 345 344 345 346 346 346 345 345 347 348 350 352 353 355 354 355 358 359 361 361 362 363 364 364 363 363 364 365 362 364 363 363 364 364 363 364 364 363 366 365 363 364 364 364 363 363 363 362 363 361 361 361 363 364 364 365 363 363 364 364 363 364 363 364 365 363 365 365
318 320 319 321 323 322 324 324 326 330 330 329 328 330 333 330 329 331 331 330 330 335 336 340 342 344 344 345 345 343 344 345 345 346 346 346 347 347 348 349 350 349 352 353 356 357 359 361 362 363 361 363 364 365 364 364 363 364 364 363 362 362 363 363 361 362 364 365 365 365 362 360 360 360 361 363 362 363 363 364 364 366 365 364 365 363 363 364 363 362 362 363 363 363 363 365 364
319 319 316 318 321 322 324 324 328 330 330 329 332 334 329 329 325 331 329 330 334 335 338 342 345 345 346 343 344 343 344 345 345 347 347 347 347 347 349 349 350 353 353 353 355 357 359 358 362 362 362 362 363 363 364 363 363 363 363 364 364 361 362 361 361 361 365 365 366 365 365 362 360 359 361 361 363 365 364 365 366 365 364 363 363 363 362 362 362 363 364 365 364 365 364 364 361
316 314 316 316 319 323 324 325 328 330 331 333 332 329 329 330 329 330 328 331 336 337 340 344 345 345 344 343 343 344 345 346 346 347 348 349 349 350 350 351 352 352 351 353 355 355 357 359 360 360 361 362 362 363 362 361 362 363 363 362 362 363 362 361 362 364 363 363 365 367 366 362 361 361 361 361 363 363 365 366 365 362 362 361 362 361 363 363 362 362 362 362 363 362 363 363 361
314 315 314 317 319 323 324 326 328 330 330 331 329 328 330 330 332 327 329 333 337 340 341 343 344 343 342 343 344 345 346 346 347 347 347 349 350 349 349 350 350 350 351 353 354 356 357 359 359 359 360 361 362 361 361 362 362 361 361 362 362 364 362 362 365 361 361 363 363 366 365 363 361 360 360 362 362 363 365 364 362 361 360 361 360 361 361 362 361 361 363 363 363 363 362 361 360
315 313 315 316 320 323 325 325 327 329 329 331 327 327 327 331 328 322 331 336 338 339 340 343 343 342 343 343 344 346 346 345 346 348 348 349 350 348 349 350 350 351 353 353 354 355 357 358 357 360 360 362 362 360 361 361 362 360 362 362 363 363 363 364 364 362 361 363 364 368 367 366 364 362 362 363 365 364 364 362 361 361 360 360 361 360 363 363 363 362 364 363 362 361 360 359 358
312 322 322 321 322 324 325 326 326 329 327 331 330 326 329 329 328 325 330 337 339 338 339 341 342 343 343 344 344 347 347 348 349 349 346 347 347 349 350 350 350 352 353 353 354 357 357 357 357 358 360 361 361 359 361 360 360 360 362 362 362 363 364 362 362 363 363 363 366 367 368 367 367 365 367 367 366 365 362 362 361 361 360 360 361 360 361 363 362 363 362 361 360 358 358 359 359
316 322 318 320 321 320 324 323 325 328 325 330 331 326 323 325 323 330 335 338 338 338 338 340 341 342 344 344 345 346 346 348 349 347 348 349 350 351 350 352 351 352 354 355 357 357 356 357 357 358 359 360 360 358 359 360 360 361 361 361 362 364 363 364 362 363 364 366 368 369 368 369 369 367 367 367 366 364 364 363 362 362 362 362 361 361 361 363 363 363 362 361 360 359 358 358 358
324 323 321 318 319 318 323 326 327 327 327 330 329 314 319 324 328 332 337 337 337 337 337 338 340 342 343 344 344 345 347 348 347 348 350 351 352 352 352 353 353 353 354 356 358 357 358 359 358 358 358 358 360 360 360 360 361 361 362 362 364 365 364 363 363 365 365 365 367 368 368 369 368 368 368 368 364 363 363 361 362 361 362 362 362 362 360 361 360 360 359 357 355 355 354 355 354
317 321 322 317 314 315 322 324 325 324 329 329 328 314 318 324 328 334 337 338 336 334 336 337 339 340 342 343 344 344 346 348 347 349 351 352 353 354 353 354 354 354 355 355 356 359 360 360 361 360 360 360 361 360 360 361 362 361 362 363 365 365 364 363 361 363 364 364 366 366 368 368 369 369 367 363 362 362 361 359 360 360 362 361 361 363 357 357 356 356 354 354 354 353 353 353 353
321 315 312 317 314 317 321 326 325 322 326 330 325 315 318 323 328 334 337 337 336 334 336 337 338 339 340 342 342 343 345 347 349 350 351 352 353 353 353 354 354 353 355 356 357 359 360 362 363 360 362 362 362 361 362 362 363 363 364 364 365 366 363 363 362 362 363 364 366 366 369 369 366 366 364 363 360 361 360 358 360 359 361 360 361 358 357 355 355 354 355 354 350 350 352 351 353
317 314 313 313 316 316 318 323 326 328 326 328 323 316 321 321 329 334 337 336 336 335 335 336 337 338 339 340 342 343 344 346 348 349 350 352 353 353 354 355 355 356 356 357 357 360 361 361 362 361 360 362 363 363 364 364 364 364 365 365 365 366 363 362 363 365 365 365 365 365 368 368 367 362 363 361 360 360 360 359 358 360 361 360 358 357 357 356 356 352 354 355 354 351 350 351 351
313 314 314 316 313 316 315 322 325 326 326 321 325 320 320 325 329 333 335 336 335 334 335 336 337 338 339 341 341 342 343 344 345 348 349 352 353 354 355 357 356 357 358 358 359 360 360 361 362 362 362 361 363 364 365 364 365 365 365 364 366 364 364 363 364 366 365 364 367 366 368 368 366 363 362 361 360 358 358 358 360 361 361 358 357 357 355 356 355 354 353 355 354 353 350 350 350
311 311 313 313 316 317 316 316 322 325 326 322 322 321 322 324 329 332 334 336 335 334 335 336 336 337 339 339 341 341 342 343 345 348 350 352 352 354 354 356 356 357 357 358 359 360 361 362 362 363 362 362 363 365 366 366 365 365 363 364 363 365 366 365 365 365 365 367 365 367 368 368 365 364 361 359 357 356 358 359 359 360 359 356 355 355 355 354 354 353 352 352 354 353 351 351 350
313 314 313 315 312 314 316 320 325 325 322 321 322 319 320 324 328 331 334 335 334 334 336 336 337 337 339 339 340 341 341 342 346 349 350 351 352 353 353 355 356 356 357 358 359 360 361 362 363 364 364 363 365 365 364 362 361 358 357 360 360 361 364 365 367 365 366 366 366 367 367 366 364 361 360 360 359 357 359 359 360 359 357 356 355 353 350 350 352 352 352 351 351 351 353 352 352
316 316 315 315 314 316 320 320 323 326 323 321 322 322 322 323 328 330 333 334 334 334 334 335 336 336 337 338 339 340 341 342 346 348 349 350 351 353 354 354 355 356 357 358 358 359 360 360 361 361 363 364 363 361 360 358 357 357 359 358 358 360 362 365 365 366 366 364 367 367 367 364 364 364 363 362 359 358 360 359 359 357 357 357 354 353 353 353 355 353 352 352 350 348 348 351 351
315 314 314 314 315 314 318 319 323 326 322 320 323 321 321 323 327 330 333 333 331 332 333 334 335 336 337 338 339 340 342 345 346 346 348 349 349 351 352 353 354 353 355 356 357 358 359 360 360 361 363 363 362 362 361 360 361 359 359 359 359 358 360 361 361 365 365 366 368 367 366 365 365 365 364 362 363 362 360 358 358 357 357 356 356 356 356 355 353 352 352 349 352 348 347 349 349
314 313 313 313 314 315 318 319 323 324 322 319 321 319 320 322 325 330 331 331 333 334 334 335 335 336 337 337 339 340 341 342 343 344 346 347 348 349 351 352 352 353 354 355 357 358 359 359 360 362 363 363 363 364 363 362 364 365 363 362 361 359 363 363 362 363 367 366 366 367 366 366 366 365 366 363 362 362 360 359 358 358 358 357 355 354 354 353 352 351 351 348 346 349 348 349 348
311 312 311 310 314 312 310 316 320 323 321 319 321 318 320 323 325 328 331 332 334 336 336 336 336 336 336 337 338 339 340 341 341 342 343 345 346 347 349 350 352 353 354 355 356 357 358 359 360 361 362 364 364 365 364 366 366 367 366 365 364 362 360 364 366 366 365 366 364 366 366 367 366 365 365 363 363 363 362 359 357 358 357 358 355 351 351 351 352 351 350 349 347 344 344 345 348
309 312 312 312 310 314 315 314 319 322 320 320 319 317 318 321 320 323 329 333 333 333 334 335 336 337 338 339 339 340 340 340 341 341 343 344 345 345 347 349 351 351 352 354 355 355 357 358 360 361 362 363 364 365 365 366 365 364 364 364 364 362 361 360 360 358 361 362 361 362 364 366 366 364 364 364 362 362 363 361 359 359 357 357 355 351 351 350 351 351 350 348 347 344 341 343 346
305 308 312 313 312 314 314 316 316 314 314 319 317 310 311 319 320 321 326 329 329 332 332 332 334 335 336 335 336 338 340 342 342 341 342 343 344 346 347 349 349 350 352 354 355 356 358 358 360 361 362 362 363 365 365 365 363 361 359 355 353 353 353 355 355 356 356 357 357 358 364 363 363 364 364 364 363 362 362 362 359 355 354 356 354 351 351 351 351 350 350 348 346 346 344 343 341
304 306 310 311 312 312 313 315 314 310 308 316 320 309 307 317 318 321 325 326 327 331 330 331 333 334 334 334 335 336 337 338 341 342 342 342 343 344 346 347 348 348 351 354 355 356 358 359 360 361 360 361 363 364 365 364 362 362 361 359 357 355 353 355 360 360 359 359 360 358 360 361 364 363 363 364 363 362 360 358 356 354 353 353 354 353 351 349 349 350 349 348 346 347 345 340 340
303 309 309 310 311 311 313 314 313 313 318 318 318 316 309 310 316 322 325 324 325 327 329 330 331 333 333 334 334 336 336 337 338 340 341 342 343 344 344 346 348 348 351 353 354 356 358 359 360 360 361 361 362 364 364 364 362 362 361 360 359 358 357 358 358 358 359 358 355 356 357 359 362 362 362 363 362 360 357 355 355 354 353 354 353 351 349 349 350 350 349 347 347 346 344 341 339
306 308 310 309 311 312 314 313 312 314 312 310 314 316 310 309 317 320 323 320 322 324 327 329 331 332 333 334 334 335 336 337 338 338 339 341 342 344 345 346 348 349 350 352 353 355 357 358 359 360 360 361 361 363 363 363 362 362 361 360 358 360 360 361 360 356 353 353 353 354 356 357 358 360 359 357 357 355 354 353 355 354 353 354 353 350 349 350 350 350 348 346 345 345 344 344 342
307 307 310 311 312 314 314 312 312 313 310 306 311 313 308 308 317 317 321 320 321 323 326 328 331 332 333 333 334 335 337 338 338 339 340 341 343 344 345 347 348 348 350 354 354 355 356 357 358 359 359 360 361 362 362 363 363 363 361 360 359 359 360 360 358 353 351 351 350 351 353 353 352 352 355 356 356 355 353 354 352 349 349 349 349 348 350 352 351 350 349 348 347 345 346 344 342
309 310 308 308 310 312 313 314 314 311 304 307 313 313 311 304 312 316 316 318 322 325 327 329 331 332 333 334 335 335 336 337 338 338 340 342 344 345 346 346 348 349 350 352 352 353 354 355 357 357 359 360 361 361 362 361 362 362 361 361 360 359 360 358 355 352 349 348 349 349 350 350 351 349 348 353 352 353 354 354 349 347 348 351 351 349 348 346 347 348 349 350 349 347 345 344 343
309 307 307 307 307 311 310 309 312 303 301 309 313 313 313 303 308 319 322 326 326 326 325 328 328 330 331 333 334 335 337 338 338 338 339 341 344 345 346 346 347 349 350 350 350 352 353 355 356 357 358 360 361 361 361 361 361 361 362 361 360 360 360 357 355 353 349 347 347 347 349 349 349 350 350 348 349 347 354 353 352 352 351 350 349 349 347 346 346 346 347 347 347 349 346 344 343
308 307 306 301 300 302 297 303 299 300 299 307 310 313 309 308 313 321 321 323 325 327 327 328 329 329 331 333 334 335 337 338 338 339 340 340 343 344 344 346 349 349 348 350 350 350 353 355 356 355 357 359 360 361 360 361 361 361 361 361 361 361 360 358 357 355 351 348 348 347 347 346 347 346 347 347 347 351 353 353 353 350 350 350 350 349 348 348 348 346 346 345 345 345 346 346 344
306 305 305 301 296 295 293 298 301 302 305 308 306 313 306 313 316 321 320 322 324 326 329 330 330 332 332 333 334 334 336 337 338 339 339 341 344 344 346 347 348 348 348 349 350 351 353 354 355 355 356 359 360 361 360 360 361 362 363 362 361 361 360 358 357 355 353 350 349 347 346 345 346 345 346 347 347 350 352 352 352 351 350 350 351 350 348 348 348 347 346 345 344 345 345 344 344
305 309 306 304 302 297 294 297 295 297 301 305 308 306 305 305 309 321 322 325 327 327 327 329 331 331 333 333 334 334 335 338 340 340 339 341 344 346 346 348 348 349 348 348 350 352 355 354 355 355 356 359 360 360 360 360 361 362 363 362 361 361 359 357 356 355 353 350 348 348 349 348 347 347 347 349 351 352 351 352 352 350 350 350 350 350 348 348 349 348 347 346 346 346 345 344 343
307 308 309 305 303 308 299 303 301 302 301 300 305 305 312 310 321 321 322 320 321 322 325 327 328 330 331 331 331 332 333 335 338 339 340 342 345 347 347 348 348 349 350 349 351 353 353 354 356 356 356 358 359 360 360 361 362 362 363 362 361 360 359 358 356 353 353 351 349 348 349 349 349 349 350 351 351 351 351 350 351 349 350 349 350 350 349 347 348 347 346 347 345 346 345 344 343
303 304 301 304 312 307 305 303 302 304 302 300 310 307 310 314 316 319 321 321 322 324 323 323 325 327 331 330 331 332 333 335 337 338 340 343 344 347 347 349 348 349 349 350 353 354 354 355 355 356 357 359 360 360 360 361 362 362 362 362 361 359 358 356 353 351 349 350 350 349 348 348 350 350 349 350 350 351 351 350 349 348 349 350 349 349 349 349 349 347 346 346 345 345 346 345 343
304 300 305 308 310 311 307 298 302 300 296 301 304 303 306 306 303 322 317 318 319 322 324 323 326 329 328 329 332 333 333 335 339 341 343 343 344 346 346 348 348 349 350 352 355 356 356 357 357 357 358 358 359 360 360 361 361 361 362 361 361 359 357 355 353 350 349 348 348 349 349 348 347 348 348 349 350 350 350 350 348 348 348 348 348 348 349 348 348 346 346 346 345 346 345 345 345
307 305 311 303 300 299 311 305 295 295 295 297 301 305 306 308 307 314 316 317 319 323 326 324 324 325 326 329 332 334 335 335 337 338 340 341 343 345 347 347 349 351 353 354 355 355 356 358 358 357 357 358 359 359 361 361 362 361 361 360 358 358 357 355 352 351 349 347 345 346 346 347 348 348 348 349 349 348 348 348 349 347 348 348 348 348 349 347 348 346 346 344 345 346 344 343 344
306 308 307 308 307 307 302 302 308 302 297 296 298 301 301 310 311 313 313 321 327 324 324 324 323 325 327 329 330 333 335 336 336 337 339 341 342 343 345 346 348 350 352 353 354 354 353 355 357 358 359 361 361 361 361 360 361 361 361 360 358 357 356 353 351 350 347 346 346 345 345 346 347 346 347 348 348 347 347 346 345 345 345 346 347 346 347 346 347 345 344 343 343 345 344 343 342
302 303 303 304 306 308 308 307 304 300 299 298 298 296 303 311 317 316 319 322 326 324 322 329 327 326 327 330 331 333 335 335 337 338 339 340 341 342 344 347 349 351 353 352 351 352 353 354 355 357 358 359 359 360 361 360 361 360 359 358 356 355 353 351 349 348 347 347 347 347 346 347 348 346 347 346 347 347 348 347 346 346 345 346 347 345 347 347 346 345 345 345 345 346 344 342 343
304 303 302 304 303 301 298 298 303 303 301 297 298 296 307 313 318 320 320 323 323 326 327 327 327 328 329 329 331 334 334 337 338 338 339 340 342 343 345 347 350 350 350 350 351 352 353 354 354 356 356 357 357 359 360 361 361 359 357 356 352 351 351 349 347 346 346 346 346 346 347 347 345 346 346 344 346 346 346 346 345 346 347 347 347 347 345 346 345 344 343 344 343 345 344 343 343
Wind_Speed
12 9 7 7 5 3 3 2 1 2 1 5 4 0 5 2 6 10 8 8 6 3 4 7 6 3 3 4 8 8 5 4 4 4 6 5 5 6 8 8 7 8 8 7 8 9 9 10 13 15 16 17 18 19 17 17 18 16 14 13 14 14 14 13 13 14 13 14 14 13 12 11 11 11 11 11 10 10 10 10 9 9 9 9 9 9 8 8 7 7 7 7 6 6 6 7 7
8 8 7 6 4 3 0 2 1 3 3 6 6 1 5 6 7 8 9 6 3 5 7 9 10 11 12 12 9 6 10 7 4 6 6 7 8 7 8 8 8 9 8 8 8 8 9 9 12 14 15 15 17 18 18 16 17 13 12 12 11 12 14 14 13 13 13 13 13 12 12 11 11 11 11 10 10 10 10 9 9 9 9 8 8 8 7 7 7 6 6 6 6 6 6 6 6
8 8 6 4 3 1 1 2 2 2 6 7 4 3 4 8 8 7 6 5 10 11 11 11 11 7 4 4 5 7 4 5 9 9 7 9 10 6 8 9 10 9 8 8 8 8 8 9 11 14 16 15 15 16 18 16 15 15 13 11 11 9 13 13 13 13 13 13 12 12 11 11 11 10 10 10 10 10 9 8 8 8 8 8 8 7 7 6 6 5 5 5 6 6 6 6 6
9 6 6 4 1 2 2 1 2 3 7 5 4 3 4 6 7 7 6 11 13 12 9 5 4 5 0 7 7 8 8 6 6 9 8 7 7 9 9 10 9 8 8 7 8 8 9 13 14 14 15 16 16 16 16 16 15 16 15 13 12 10 9 12 13 13 13 13 12 11 11 10 10 10 9 9 9 9 8 8 8 7 7 7 7 7 6 6 5 4 4 5 5 5 5 5 5
8 5 2 1 1 2 2 2 2 1 6 2 5 4 3 5 8 9 9 10 9 6 6 6 6 7 9 8 2 1 6 7 7 5 7 7 10 10 11 10 9 9 9 8 8 7 10 15 15 16 16 16 16 17 16 17 16 16 16 12 12 12 8 11 13 13 13 12 11 11 10 10 9 9 9 8 8 8 7 7 7 7 7 7 6 6 5 4 4 4 4 4 4 4 5 5 5
7 5 1 2 2 1 2 2 3 4 4 0 5 5 5 7 9 11 10 6 6 7 7 6 6 5 4 5 2 5 8 6 6 7 8 9 12 11 11 10 10 9 9 9 7 7 8 13 12 14 17 17 17 16 15 14 14 14 14 13 11 12 15 14 13 13 12 12 11 11 10 10 9 9 8 8 7 7 7 7 7 7 6 6 5 5 5 4 3 4 3 3 4 4 4 4 4
6 5 1 2 3 2 1 3 3 2 3 3 2 6 7 8 10 12 11 10 6 7 2 9 14 12 9 4 7 6 2 5 7 8 7 12 12 11 11 10 10 11 10 10 9 10 12 12 11 12 13 14 16 17 14 12 12 12 12 13 13 14 14 13 13 12 12 11 11 10 10 9 9 8 7 7 7 7 6 6 6 6 5 5 5 4 4 4 4 4 4 4 4 5 5 5 5
1 3 1 1 1 2 3 4 4 2 3 2 1 6 8 9 10 10 10 7 7 5 9 11 6 9 7 2 4 4 6 5 8 10 13 12 12 11 11 10 10 11 10 9 10 12 17 17 15 13 12 11 14 16 15 14 13 13 15 17 17 14 13 13 12 12 12 11 10 10 9 9 8 8 7 6 6 6 6 5 5 5 5 5 4 4 4 4 5 5 4 5 5 6 7 6 6
2 1 1 2 1 1 3 3 3 2 3 3 5 6 8 9 7 8 8 5 9 9 8 7 7 7 4 8 6 4 6 9 11 13 13 14 13 12 8 10 10 10 10 9 9 10 14 19 19 18 18 16 16 16 17 18 17 17 16 15 13 12 11 11 11 11 10 10 10 9 9 8 8 7 7 6 5 5 5 5 5 5 4 5 4 5 4 5 5 5 5 6 7 7 8 9 9
3 3 2 1 1 5 3 3 1 3 2 3 6 8 9 8 7 5 9 9 8 10 6 3 1 11 10 9 7 2 5 10 13 13 12 13 12 10 10 10 10 11 10 10 9 9 8 14 18 19 19 19 20 20 20 19 16 15 14 14 13 12 11 11 11 10 10 9 9 9 9 8 7 7 7 6 5 6 5 5 4 4 4 4 4 3 5 5 6 5 6 7 8 11 12 12 12
2 1 1 2 3 4 3 3 3 3 5 5 5 7 7 6 8 8 6 9 7 7 8 11 12 14 10 6 5 4 7 11 14 14 13 13 12 11 10 10 10 10 10 10 10 9 9 10 13 14 14 14 15 14 14 14 13 14 13 13 13 12 12 12 11 11 10 10 10 9 8 8 8 7 7 6 6 5 5 4 3 3 4 4 3 5 4 5 4 3 4 6 7 8 10 12 14
2 2 2 1 3 2 4 4 4 4 5 6 6 7 5 7 8 8 10 11 7 9 8 5 8 13 11 8 4 6 9 11 12 13 12 12 11 11 11 9 10 10 10 10 10 9 9 9 8 13 13 13 13 13 12 14 14 14 13 13 13 12 12 12 11 11 10 10 9 8 8 8 8 7 6 6 6 5 4 4 3 2 3 3 4 4 4 5 5 6 5 7 7 8 7 6 8
1 2 1 2 2 1 6 6 4 6 5 6 7 6 6 8 8 10 9 9 8 8 6 1 16 6 8 6 6 8 11 11 12 12 13 11 11 10 9 10 10 10 9 9 10 9 9 8 9 9 11 13 13 13 13 13 13 13 13 12 12 12 12 11 11 10 10 9 9 8 7 7 6 6 6 5 4 3 3 2 2 1 2 3 3 3 3 4 6 7 6 5 5 4 5 4 5
3 3 1 1 1 4 5 5 6 6 5 6 5 7 7 6 5 8 10 12 8 3 5 13 9 8 12 9 7 9 10 12 12 13 10 11 10 10 10 9 11 10 10 9 9 8 9 8 8 9 10 10 10 11 12 12 11 12 12 11 11 11 10 10 10 9 9 8 7 7 6 6 6 5 5 4 4 3 2 1 1 2 2 3 4 5 4 4 4 7 7 5 5 4 3 3 5
3 2 1 3 4 5 2 5 8 7 4 8 7 9 8 2 7 7 8 12 6 7 10 6 7 9 6 12 10 11 12 14 14 12 12 11 11 10 10 9 9 9 9 9 8 8 8 8 8 8 8 8 9 7 7 9 10 10 10 10 10 10 9 9 9 8 8 7 7 6 6 5 5 5 5 4 3 3 2 2 0 2 2 3 4 5 8 3 1 4 6 6 6 6 5 6 6
2 3 1 3 5 6 5 1 5 4 4 9 9 9 7 6 7 8 3 2 8 8 11 6 2 2 8 7 10 14 15 15 14 12 12 12 11 9 9 9 8 8 7 8 8 7 8 8 7 7 7 7 7 7 7 8 9 9 9 9 8 8 8 8 8 7 7 6 6 5 5 4 4 4 4 4 4 3 2 2 1 2 3 4 4 6 7 8 7 7 6 6 5 6 5 4 7
1 3 3 2 5 7 6 5 9 6 6 9 11 11 9 8 6 3 2 8 12 11 4 6 3 2 13 3 14 15 16 15 13 13 13 11 10 9 8 7 7 7 5 7 7 7 8 8 8 7 7 7 7 7 6 6 7 8 8 8 8 7 7 7 6 6 6 6 5 5 4 3 3 2 2 2 2 2 1 1 2 3 7 11 9 6 6 8 8 8 7 9 8 7 7 7 5
4 3 2 4 3 9 8 10 11 5 11 12 14 13 11 11 9 6 9 8 9 8 6 6 4 5 9 12 16 16 16 16 15 15 13 11 9 10 9 8 8 8 8 7 7 7 7 7 8 7 7 7 6 5 4 5 6 7 6 7 6 6 6 6 6 4 4 4 5 4 3 2 2 2 2 2 2 1 1 1 2 1 5 6 5 8 7 8 9 9 9 10 10 8 9 6 3
4 2 3 4 6 5 7 10 9 9 11 13 13 12 11 10 12 9 8 10 11 8 7 7 9 11 13 16 17 17 17 16 15 14 15 15 12 13 11 10 10 10 9 7 7 8 7 7 8 8 7 7 7 6 5 5 6 5 6 5 5 6 5 5 4 4 3 3 3 3 3 2 2 2 2 2 2 3 3 3 4 3 1 5 5 7 9 8 10 10 10 10 10 11 8 4 5
3 3 4 6 7 6 7 10 12 6 13 14 14 12 10 11 10 9 8 13 11 11 10 8 11 14 16 18 18 17 17 16 15 15 15 15 14 13 12 12 11 10 10 8 8 7 8 7 8 8 8 8 7 6 5 5 5 5 5 5 4 4 4 4 4 4 3 3 3 3 2 2 3 3 2 3 4 3 2 2 2 3 5 7 8 7 8 9 9 11 10 10 8 5 5 5 5
4 5 6 3 6 7 8 12 12 9 16 15 14 12 10 12 9 9 10 12 11 9 14 18 15 17 18 19 18 17 17 17 15 14 15 14 14 11 10 10 9 9 9 8 7 8 9 8 8 8 8 8 8 6 6 5 5 5 5 4 4 4 4 4 4 4 3 4 4 3 3 3 3 3 3 3 4 3 4 4 3 3 3 4 5 6 5 5 5 5 5 4 4 4 4 4 4
4 6 5 2 4 7 8 13 13 11 11 15 14 15 13 11 8 10 16 12 11 13 13 10 16 18 19 20 19 17 18 17 16 16 15 16 16 13 11 10 8 8 8 8 9 9 9 9 9 7 8 8 8 7 6 5 5 5 5 4 4 4 4 4 4 4 4 4 4 4 4 4 4 4 4 4 4 4 4 4 4 4 4 4 3 4 4 4 4 4 4 4 3 3 4 4 4
7 5 3 3 5 5 7 12 13 15 13 14 16 12 12 13 9 11 17 8 3 1 12 13 16 18 18 19 18 18 18 18 16 16 15 15 15 13 12 11 11 11 9 10 9 9 9 9 9 8 8 8 8 7 6 6 6 5 5 5 5 5 4 4 4 4 4 4 4 4 4 4 4 4 4 4 5 4 4 4 4 3 4 3 3 4 4 4 4 4 4 4 3 4 3 3 3
5 6 2 3 5 8 11 13 16 15 19 17 12 13 14 14 11 11 14 5 4 2 11 14 14 17 18 19 19 20 19 19 18 16 16 16 15 15 12 11 11 10 10 10 10 10 10 11 11 10 8 8 8 8 7 7 6 6 6 5 5 4 5 5 5 5 4 4 5 5 5 4 4 5 5 5 5 4 4 4 4 3 3 3 3 3 4 3 4 4 3 3 3 3 4 3 2
7 6 4 2 4 5 12 14 16 16 13 12 14 16 16 14 7 13 14 4 1 9 14 15 16 16 17 18 19 18 17 16 16 15 12 10 11 11 10 9 10 10 11 11 10 11 11 11 11 11 10 10 8 8 8 7 6 6 6 6 6 5 5 5 5 4 4 4 5 5 5 5 5 5 5 5 4 4 4 4 3 3 3 3 4 3 3 3 3 3 3 3 3 3 3 3 3
8 7 0 2 5 8 12 14 15 14 8 12 13 11 10 5 8 12 10 3 7 12 15 16 17 17 17 18 18 17 16 17 15 15 14 11 11 13 13 11 11 12 11 11 11 10 11 12 12 13 12 10 10 9 8 7 7 7 7 6 6 6 6 5 5 5 5 5 5 6 6 6 6 5 6 5 5 5 4 4 4 4 4 3 3 3 3 3 3 3 3 3 3 3 4 4 4
5 2 3 6 6 10 12 16 14 13 11 17 16 11 10 7 9 7 8 7 11 13 15 16 17 17 17 16 15 16 17 17 18 15 13 12 12 13 13 13 12 12 11 13 11 11 11 12 12 12 12 11 10 10 9 9 8 8 8 7 6 6 6 5 5 6 6 6 6 6 7 7 6 6 6 5 4 4 5 5 4 3 4 2 2 3 3 3 3 3 3 3 4 4 4 4 5
3 7 8 5 5 8 10 12 14 12 7 11 12 10 7 7 7 7 12 11 14 14 15 16 16 16 15 16 15 14 14 15 13 14 17 16 13 13 13 12 13 12 12 13 11 10 11 13 13 13 13 12 11 11 10 9 9 9 9 7 7 7 6 6 6 6 6 6 6 6 6 6 6 6 5 5 5 4 5 5 4 4 3 2 2 3 3 3 4 3 3 4 4 4 5 4 4
6 9 5 4 8 8 10 14 15 14 9 12 13 10 7 10 11 7 12 12 14 14 15 16 16 14 14 15 13 13 14 13 13 13 15 14 13 12 14 13 13 12 9 12 11 11 12 13 12 13 13 13 13 12 10 10 9 9 8 8 7 6 6 6 6 6 6 5 5 6 6 6 5 5 5 6 5 5 5 5 5 4 3 2 2 3 5 4 3 3 2 3 4 4 4 4 4
7 1 8 8 7 6 7 3 12 11 9 17 14 7 11 16 9 8 13 14 13 13 13 15 13 13 13 14 13 13 13 14 15 14 13 13 12 13 13 13 13 12 9 9 11 12 10 8 8 9 12 13 14 11 10 9 9 8 8 7 7 6 6 6 6 6 6 5 5 5 6 6 5 5 5 5 4 5 4 5 5 4 3 3 3 3 3 3 3 3 4 4 4 5 5 4 4
6 5 5 7 8 7 8 8 13 10 8 16 15 10 8 11 10 9 13 16 17 15 15 15 13 13 12 13 13 13 14 14 15 15 14 13 12 11 13 12 13 12 8 10 12 13 12 9 8 7 10 12 13 12 12 10 9 8 7 6 6 6 6 6 6 6 6 5 5 5 5 5 5 5 5 4 4 4 4 3 4 4 3 3 2 1 3 3 3 3 3 4 4 4 4 4 4
7 8 5 3 8 7 9 4 15 13 7 14 13 10 10 5 11 13 13 15 16 15 15 16 14 14 13 13 13 13 13 14 15 15 15 14 13 11 12 13 13 13 12 11 11 11 12 11 10 9 10 11 11 11 11 10 9 7 6 6 5 6 6 6 6 6 6 5 5 5 5 4 5 5 3 3 4 4 4 4 4 4 3 2 1 2 2 2 3 3 3 3 4 4 3 4 3
2 5 6 9 5 7 7 9 11 6 14 12 16 7 3 5 11 15 15 16 16 14 15 15 15 16 14 13 12 12 12 14 14 15 15 14 13 12 12 13 13 14 13 12 12 12 11 12 11 11 12 12 11 10 10 9 8 7 7 6 6 6 6 6 6 5 5 5 5 5 4 3 4 4 3 3 3 4 3 5 5 4 2 0 1 1 2 2 3 3 3 2 3 4 4 5 4
7 1 5 7 11 9 7 8 11 6 16 13 14 9 5 4 7 14 16 17 16 14 15 16 15 13 14 12 12 12 12 13 15 15 16 15 12 14 12 12 13 13 13 13 12 12 12 11 10 11 10 11 9 9 9 8 7 7 6 6 6 6 7 6 6 5 5 5 5 4 3 3 3 4 4 5 2 4 4 4 3 2 2 1 1 2 2 2 3 4 4 3 3 4 4 4 5
9 6 5 6 3 14 11 11 14 12 16 14 15 13 14 4 8 13 15 16 16 16 15 16 15 14 13 12 12 13 12 14 15 14 15 15 15 14 12 12 13 13 11 13 12 11 10 10 9 10 10 10 9 9 8 7 6 6 7 7 7 7 6 6 5 5 5 5 5 4 4 3 4 4 5 5 3 4 4 4 4 3 2 2 2 3 3 3 3 3 4 5 4 4 5 5 5
13 12 10 9 10 10 11 10 11 17 15 14 16 16 18 8 8 11 13 15 16 14 13 12 14 14 14 13 13 13 13 15 13 13 15 14 13 13 13 12 12 11 11 11 12 11 11 10 9 9 9 9 8 8 7 7 8 9 9 8 8 8 7 5 5 6 5 5 5 4 4 3 4 4 6 6 3 4 5 4 4 3 4 4 4 3 3 3 3 4 5 4 5 4 4 4 4
11 7 5 11 14 11 5 7 9 14 11 15 16 13 8 6 7 11 13 14 14 13 15 13 13 13 14 13 14 15 15 16 13 13 14 15 15 13 12 12 12 12 11 12 12 12 12 11 10 11 10 10 9 9 9 10 10 10 9 9 8 7 7 6 5 5 5 5 5 5 4 4 5 5 5 4 5 6 6 5 5 5 5 4 3 3 3 4 3 4 4 4 5 6 4 2 2
11 11 11 10 9 10 9 9 11 13 12 10 8 7 10 5 4 8 11 13 16 18 16 16 16 15 13 15 16 16 15 9 11 12 13 14 13 15 13 11 12 13 12 12 13 13 12 12 12 11 10 12 13 11 10 11 10 9 8 7 7 7 6 6 7 6 6 5 5 5 5 5 5 5 5 6 7 7 6 5 5 5 5 4 3 3 4 3 4 4 4 5 3 5 4 3 3
10 10 10 8 9 4 6 5 7 11 11 9 5 12 12 5 5 8 13 16 15 16 17 16 15 15 13 14 16 15 13 13 13 14 14 14 16 15 13 12 13 14 14 14 14 13 13 12 11 11 10 11 11 12 11 10 9 8 7 6 6 6 6 6 7 7 4 4 4 5 5 5 5 5 6 7 7 7 7 6 5 5 5 3 3 4 3 4 3 4 4 5 4 1 3 2 2
8 8 7 12 8 9 7 7 8 9 7 6 5 9 9 3 5 10 13 15 12 11 14 13 13 15 16 17 16 14 15 14 15 16 16 16 16 15 14 13 13 13 12 13 13 14 11 11 11 11 10 10 9 10 10 9 8 7 7 6 5 6 6 5 4 3 4 4 5 5 4 5 5 6 6 7 7 7 7 6 5 4 3 2 3 3 3 3 2 2 2 3 3 4 2 1 1
6 10 11 9 9 14 10 7 7 8 3 4 6 6 9 8 8 9 12 14 13 12 12 13 13 14 15 13 13 14 16 16 15 16 15 15 16 16 15 14 13 13 13 13 13 13 9 13 13 12 11 11 10 10 11 9 7 6 6 5 4 4 2 5 5 5 5 6 7 6 6 5 6 6 7 7 7 7 6 5 4 3 3 2 2 3 2 3 2 2 2 3 3 3 3 1 1
7 9 11 11 11 11 7 13 11 6 7 8 8 4 11 8 14 14 8 11 15 13 14 17 17 16 15 15 16 15 16 15 15 16 17 16 16 14 14 14 14 13 14 14 13 14 13 12 12 12 10 10 10 11 11 9 9 8 8 10 10 9 10 9 8 8 6 6 8 6 5 6 6 6 6 7 6 6 6 5 5 4 3 3 3 2 2 2 2 2 0 2 2 2 3 2 1
8 8 10 8 9 10 11 13 11 7 10 10 12 12 11 4 9 12 10 12 15 12 16 17 16 16 16 16 15 15 16 15 15 15 14 15 15 15 15 15 16 16 15 13 12 13 14 13 12 12 11 10 10 11 12 9 10 9 11 10 10 11 11 10 5 5 5 4 4 5 4 5 6 6 6 6 6 6 6 5 4 4 3 3 3 2 2 3 2 1 1 1 1 1 2 2 2
10 4 13 8 8 11 13 14 13 6 2 6 15 12 13 10 8 8 10 13 13 15 17 19 17 18 19 18 17 17 16 17 15 17 16 16 16 17 18 17 16 17 15 13 13 12 13 13 12 12 10 10 10 10 12 11 10 10 11 11 9 10 10 8 7 5 3 3 4 5 4 4 5 5 5 5 6 6 5 5 5 4 4 3 3 3 3 2 1 1 1 1 1 1 2 2 1
2 4 12 14 13 13 14 13 11 6 7 5 9 4 6 8 5 4 10 11 13 17 19 20 21 19 20 20 19 19 19 17 17 15 17 18 17 18 16 16 17 17 14 14 13 12 12 13 13 12 12 11 10 12 11 12 11 10 10 10 11 9 9 7 5 5 4 4 6 4 4 4 4 5 5 7 6 6 6 6 5 5 4 4 3 3 3 2 3 4 3 3 2 1 1 1 1
1 6 5 4 3 7 13 10 10 5 7 9 10 12 9 11 5 5 6 9 13 18 20 21 21 22 20 19 20 20 18 16 17 18 17 18 18 17 18 16 15 15 15 14 14 12 12 12 12 13 13 11 10 12 12 13 13 10 10 11 12 9 7 5 4 5 5 5 6 6 5 5 5 5 5 6 6 6 7 6 6 5 5 4 3 3 2 3 3 3 3 3 2 2 2 2 2
10 11 10 7 4 3 3 3 3 5 8 10 11 15 12 10 10 10 8 11 15 12 11 14 16 18 20 18 19 18 17 16 15 17 17 17 17 16 15 16 16 15 13 14 14 13 13 13 13 14 14 11 12 12 13 14 12 12 11 12 13 11 10 8 6 6 5 6 6 7 6 6 5 6 6 5 6 7 7 6 6 6 5 4 4 3 4 4 4 4 3 3 3 3 2 2 2
14 6 8 9 5 4 3 2 3 7 7 7 9 15 16 12 9 7 14 12 12 14 15 16 17 21 21 20 19 19 18 16 16 16 16 16 13 13 13 15 15 15 13 14 14 13 13 13 13 15 14 14 12 12 13 13 12 13 12 12 12 11 11 8 10 9 8 9 8 7 6 5 5 5 5 5 5 7 6 6 6 5 5 5 4 4 3 3 3 3 3 3 2 2 2 3 3
8 8 10 11 5 4 6 3 8 9 7 2 2 9 6 16 14 3 7 12 13 14 14 15 17 19 20 20 21 17 16 17 16 15 14 14 14 15 16 16 14 14 14 16 16 15 13 13 15 15 15 14 13 13 14 14 13 13 12 12 12 10 11 11 10 9 8 8 7 7 7 7 6 5 5 6 7 7 6 6 6 6 5 5 5 4 4 4 3 3 3 3 2 3 2 2 2
9 12 11 11 7 9 6 4 2 2 5 4 1 10 12 3 10 19 17 16 17 16 14 14 10 8 11 15 16 16 15 17 17 16 16 15 15 15 16 16 15 14 16 16 16 15 13 12 15 16 16 15 14 14 14 14 14 13 12 12 11 10 10 10 9 9 8 7 7 8 8 8 7 8 7 7 7 7 6 7 7 7 7 6 5 5 5 4 4 3 3 3 4 3 2 3 3
11 6 12 9 8 7 8 6 8 6 5 3 4 7 5 8 5 2 15 19 16 9 11 11 8 6 6 11 13 16 16 16 14 14 16 16 16 17 16 15 15 15 17 17 15 15 13 14 15 16 16 15 15 15 13 15 13 13 12 11 11 10 10 9 9 8 8 8 7 8 7 7 7 7 7 7 7 7 7 6 7 7 7 6 5 5 5 5 5 4 4 4 4 3 3 3 3
9 5 4 7 11 5 10 5 8 7 4 3 6 6 2 7 6 7 4 7 9 11 11 10 12 11 9 10 14 16 17 17 17 17 17 18 17 16 15 15 15 15 17 15 16 14 15 15 16 17 17 16 15 15 14 14 13 11 13 13 12 11 9 8 7 6 7 8 8 8 8 7 7 7 6 7 7 7 7 7 7 7 7 6 6 6 6 5 5 5 5 4 5 3 4 5 4
7 5 14 9 6 10 5 3 5 4 2 7 5 4 6 5 11 15 11 7 13 8 10 10 12 13 11 12 14 16 17 17 17 17 16 17 16 16 16 16 16 16 16 16 17 17 18 17 16 17 17 15 16 16 15 14 13 13 14 13 12 12 12 11 9 10 10 8 7 7 8 8 7 6 6 6 7 7 7 7 7 8 7 6 6 6 6 6 5 5 5 5 5 4 4 5 4
7 11 9 6 4 3 6 9 3 7 9 5 6 8 6 4 5 1 2 7 12 13 12 14 8 10 13 14 14 15 17 19 19 18 17 18 19 20 19 17 19 19 19 18 18 17 16 15 16 17 15 16 16 15 15 14 14 14 13 14 13 12 11 11 9 9 8 7 6 6 6 6 7 7 6 6 6 7 6 7 7 7 7 6 7 7 6 6 5 5 5 5 5 4 4 4 4
9 5 13 13 7 11 1 3 8 8 9 6 5 9 8 8 7 0 5 5 9 11 11 7 8 11 15 14 15 15 16 15 15 18 16 16 16 17 17 18 19 18 18 18 18 16 13 13 14 16 18 19 17 13 13 11 13 11 10 12 15 11 10 9 8 8 7 8 8 8 8 7 7 6 6 6 6 7 7 7 7 7 6 6 6 7 6 5 5 5 5 5 5 5 5 5 5
4 4 12 2 4 7 9 7 1 5 9 4 7 6 9 8 7 7 12 9 9 12 9 8 13 15 13 13 14 14 14 15 16 17 17 17 18 20 21 20 19 19 17 16 17 16 18 17 16 16 16 14 14 14 14 14 14 12 9 10 13 10 10 10 9 9 8 9 9 9 9 8 8 7 7 7 7 8 8 8 8 7 6 6 6 6 6 6 4 5 5 5 5 5 5 6 6
8 8 8 5 3 3 2 2 8 8 8 7 8 8 5 5 7 11 12 11 10 12 13 10 9 11 14 13 13 13 15 15 15 16 16 18 19 20 19 18 17 17 16 16 16 18 18 17 17 18 17 17 16 15 14 13 13 12 13 12 12 11 11 9 9 9 9 9 9 8 8 7 6 6 7 8 7 8 8 8 7 7 7 6 6 6 5 5 5 5 5 6 6 5 5 6 5
11 12 10 12 8 8 11 10 3 2 8 3 7 13 3 7 7 11 13 13 13 12 12 10 10 9 11 10 13 13 13 14 16 17 17 17 17 17 17 16 14 14 15 16 16 16 17 17 17 17 17 16 17 15 14 13 12 12 16 14 9 8 9 8 10 10 10 9 9 8 7 6 7 7 7 7 7 6 6 6 7 6 6 5 5 6 6 5 5 6 6 5 6 6 6 7 6
Wind_Direction
137 142 141 155 158 160 204 205 200 50 203 72 106 143 93 105 116 140 131 148 152 54 87 101 105 113 325 73 91 100 45 360 13 321 84 113 138 112 120 120 109 108 109 124 133 129 127 118 125 130 127 126 134 134 128 127 127 121 122 122 127 128 130 131 130 131 129 127 126 125 125 124 121 115 112 110 108 106 103 104 104 105 102 99 98 96 94 91 85 77 73 73 70 68 68 71 70
137 134 145 157 159 229 94 310 76 124 99 101 76 152 117 130 165 147 147 157 72 118 107 98 90 79 81 100 111 144 52 24 7 82 89 118 122 111 124 124 126 119 120 122 119 121 123 126 128 127 124 127 125 127 124 120 127 120 113 111 106 126 132 133 132 132 130 128 126 126 125 123 120 115 110 109 108 107 105 104 105 104 104 102 100 97 92 87 81 77 75 73 71 65 64 65 66
137 143 146 178 173 276 306 275 118 76 91 87 80 71 139 156 154 153 140 119 120 122 113 103 94 70 101 130 103 359 82 62 98 103 109 138 124 125 132 127 121 123 122 123 122 125 128 133 135 126 125 127 123 123 125 128 128 122 116 113 113 116 134 133 135 136 134 129 125 124 122 120 117 115 113 113 111 107 105 105 106 107 106 103 99 95 90 86 83 80 78 74 70 68 64 63 66
142 158 150 195 131 240 307 72 53 83 85 85 120 123 169 151 136 129 113 127 131 131 125 104 67 350 292 75 73 92 93 100 96 119 122 152 114 137 135 127 129 127 122 121 122 125 129 138 137 132 127 129 132 129 130 131 129 127 127 124 125 125 125 139 141 138 133 128 127 125 121 117 116 114 113 110 109 108 109 113 111 110 106 103 99 94 93 81 83 84 78 77 77 70 66 63 58
143 150 179 331 288 36 338 38 77 277 97 181 103 161 163 150 128 121 118 129 133 139 121 117 96 49 60 74 58 49 108 102 119 111 117 108 126 132 132 131 131 124 124 120 120 124 130 134 133 133 131 132 134 135 135 138 136 135 134 131 133 129 133 155 144 138 132 128 127 124 122 120 118 116 114 115 113 115 117 115 112 108 105 102 103 97 93 90 80 74 67 67 68 65 65 59 53
127 142 183 286 18 40 233 163 115 65 58 326 134 159 156 143 135 126 126 114 102 98 102 96 118 150 83 38 29 106 133 132 127 117 130 126 132 132 132 137 130 125 125 117 108 122 136 135 137 135 135 134 136 140 142 139 135 131 127 125 132 143 173 152 144 136 132 129 127 127 124 122 121 122 124 123 122 123 123 116 112 106 105 105 96 90 85 87 75 69 61 51 52 60 58 54 44
147 153 145 154 150 233 63 83 93 71 85 272 43 146 157 142 133 132 133 114 89 91 81 110 113 119 96 108 86 66 5 105 147 131 140 134 132 135 136 137 130 127 133 132 132 134 140 139 133 130 133 134 135 135 131 128 125 130 139 145 161 165 154 142 136 133 131 129 128 127 125 125 127 126 126 122 126 121 120 115 111 109 109 104 96 89 81 69 60 52 38 26 23 27 23 31 33
64 282 112 271 41 261 78 84 86 330 88 300 22 144 147 141 141 147 144 152 149 127 113 123 119 89 77 285 122 68 82 95 106 130 131 136 137 134 136 134 130 130 131 131 139 136 138 147 145 138 135 138 138 136 137 138 142 152 159 168 158 147 141 139 136 133 132 130 128 127 129 133 130 129 127 129 127 124 123 119 118 118 109 101 92 82 67 58 49 41 29 18 9 6 8 7 8
136 125 60 232 121 116 111 62 62 81 78 115 106 105 126 138 149 146 138 103 106 117 130 141 145 117 118 105 91 96 86 107 117 128 136 136 137 137 136 139 133 133 134 133 127 134 139 145 144 151 146 153 151 151 147 149 162 163 155 143 140 139 137 134 132 129 128 128 130 133 135 134 135 132 135 134 135 128 129 130 125 115 100 79 55 49 45 44 36 28 15 12 9 1 1 358 358
117 308 146 271 281 110 99 103 155 49 77 87 133 143 142 147 139 146 133 135 127 121 91 98 108 112 133 110 119 139 122 126 129 133 137 139 137 138 138 139 135 135 134 132 130 128 132 136 145 145 149 154 154 156 152 153 148 140 138 138 138 140 137 135 133 132 133 137 136 138 141 141 140 138 138 140 144 141 138 133 123 99 90 71 59 42 34 31 26 17 9 7 9 13 3 2 355
143 80 29 225 133 122 142 122 108 129 114 123 112 134 144 144 143 133 135 116 126 120 118 113 99 122 124 107 95 86 130 138 143 141 143 142 143 142 136 140 139 139 136 135 131 127 134 139 139 136 137 142 140 134 136 134 131 134 138 137 136 137 138 137 139 139 140 140 142 141 139 140 141 143 146 146 148 142 140 126 118 98 75 69 43 27 27 26 14 0 0 19 15 15 18 360 4
181 181 190 182 144 149 137 128 127 117 127 147 139 155 159 151 142 138 138 134 130 131 133 183 136 130 108 130 132 142 143 152 146 141 145 144 145 140 140 142 143 142 141 135 134 133 135 136 144 139 140 137 133 132 139 132 142 139 138 137 138 138 138 140 138 140 141 141 139 140 143 143 146 148 150 149 146 148 139 120 93 92 80 54 32 22 6 13 359 343 1 8 13 16 23 19 353
280 161 178 187 85 159 125 133 137 145 155 186 161 167 152 156 179 153 142 125 140 133 131 151 138 148 124 135 132 144 158 156 147 148 147 149 146 144 144 144 147 148 145 142 139 136 140 146 146 146 138 136 137 138 137 137 138 138 138 139 140 140 141 141 142 143 143 143 144 144 143 144 145 147 149 144 141 135 143 127 117 70 46 45 41 329 345 29 355 332 336 359 357 15 355 18 333
209 198 322 100 320 135 149 115 149 169 190 158 157 147 161 166 161 151 142 136 140 110 95 132 138 118 107 119 151 164 165 158 151 150 150 148 147 148 146 147 151 152 149 149 144 142 144 150 147 142 142 145 141 141 140 139 139 140 140 140 140 141 141 143 145 146 145 144 146 145 147 150 151 151 149 154 146 156 141 146 56 28 19 11 358 338 348 37 334 327 333 344 331 335 342 312 289
215 160 86 99 136 152 149 157 182 186 163 170 154 156 155 86 148 149 162 141 109 113 117 115 129 154 174 165 170 176 163 161 155 151 149 147 148 146 147 150 151 154 154 152 144 150 149 149 147 147 144 147 148 149 146 143 141 139 140 139 141 143 145 146 147 146 147 150 149 152 155 154 155 159 162 165 168 178 161 179 214 352 345 354 339 339 322 335 325 319 325 333 332 331 329 304 286
189 185 89 140 161 186 179 213 165 190 149 180 152 152 136 118 150 163 147 348 119 130 148 135 213 329 139 190 163 158 153 156 154 149 147 146 145 143 147 153 154 154 156 156 154 155 155 156 151 153 149 148 153 150 149 148 143 142 141 142 143 146 148 147 146 148 149 152 154 154 156 169 168 172 172 184 185 190 189 286 47 321 338 323 336 3 334 350 342 330 329 322 316 304 304 298 295
221 254 176 133 173 203 164 195 159 194 140 165 152 161 159 150 154 55 87 127 134 152 140 133 128 304 158 148 142 144 148 150 150 147 146 147 151 152 156 159 158 161 162 163 165 161 159 162 160 158 157 155 153 152 151 149 144 148 149 148 152 152 151 151 148 152 155 154 162 157 170 194 177 177 185 207 188 210 52 252 295 9 2 353 355 350 339 334 326 313 312 300 295 290 294 302 281
196 187 201 196 190 200 177 187 184 135 154 164 169 174 157 152 159 130 126 126 130 144 118 116 76 96 121 123 133 143 146 152 154 153 156 157 162 161 166 166 169 171 172 168 173 170 168 169 168 167 161 160 158 156 155 157 154 165 158 158 163 161 160 162 162 161 163 161 165 172 189 185 188 199 218 237 239 253 211 319 305 348 59 294 315 310 309 297 292 291 292 290 291 293 303 299 315
192 135 223 233 184 198 180 193 167 150 171 164 168 171 169 157 156 160 154 147 150 149 126 127 107 110 116 130 137 147 153 155 159 161 160 164 169 168 171 170 176 173 178 175 176 180 181 174 174 174 168 166 164 165 165 169 166 165 165 165 159 171 163 172 164 166 173 171 179 186 195 208 211 221 232 260 278 284 290 312 312 330 47 273 272 269 270 264 265 275 279 285 291 296 298 308 312
210 224 224 239 195 185 198 178 178 194 148 156 163 170 176 148 163 166 175 159 168 169 146 152 146 140 141 141 149 153 158 159 164 164 166 169 173 173 173 175 178 180 179 181 179 183 187 184 176 177 175 173 176 174 177 178 172 171 175 172 173 173 176 171 176 176 177 186 194 203 214 220 232 233 256 254 265 260 250 240 269 271 253 245 257 258 261 252 252 265 276 286 293 302 312 315 320
137 217 234 237 167 178 199 188 178 167 159 159 161 157 166 163 163 172 157 152 192 193 177 170 165 154 150 151 154 158 162 165 168 170 171 172 176 178 177 178 181 179 181 180 184 187 192 190 180 181 180 178 185 181 183 186 179 183 182 181 183 181 185 185 187 191 189 199 207 221 226 230 238 248 251 261 269 278 283 290 277 278 282 278 249 277 281 283 266 289 290 290 302 311 313 317 316
137 230 244 172 156 228 167 182 160 159 161 151 157 162 177 153 164 179 166 172 192 197 186 179 155 154 153 155 158 161 166 169 172 174 176 175 177 179 178 180 184 184 182 191 191 186 193 194 191 186 184 186 192 190 192 184 186 195 189 190 192 192 197 198 202 204 204 208 217 225 234 235 241 249 252 262 268 276 285 288 292 294 291 287 274 283 287 289 286 284 289 301 313 312 311 313 312
226 215 249 214 192 229 152 162 156 148 154 158 169 169 137 166 178 185 181 198 56 124 176 160 159 156 157 151 155 164 168 172 176 178 177 178 180 183 180 179 183 187 189 196 190 193 192 193 193 194 192 191 194 198 197 196 196 201 198 195 200 200 203 209 212 213 215 216 225 231 241 240 247 251 255 258 266 276 286 292 294 291 289 292 309 299 295 290 288 292 300 306 317 299 298 311 321
235 237 92 254 202 224 162 165 157 158 161 176 162 145 158 169 177 180 194 211 332 163 154 151 150 151 154 156 165 167 172 176 180 180 181 183 183 184 183 181 186 186 193 193 195 195 194 196 193 197 199 194 196 200 204 204 201 203 205 197 210 207 211 216 221 218 219 221 227 237 244 257 256 255 258 261 262 266 274 282 291 289 291 306 321 303 293 294 293 295 304 317 318 321 316 307 289
201 243 230 292 193 204 168 158 166 166 159 139 148 163 178 178 164 159 201 216 87 142 138 145 148 156 162 162 168 170 172 177 180 181 180 184 185 184 184 187 189 190 197 195 195 199 198 198 195 199 200 198 200 200 209 208 207 209 209 211 210 208 219 225 227 227 227 232 228 235 241 250 252 257 261 264 270 274 280 277 279 287 303 307 315 299 297 293 293 297 300 300 294 294 292 294 297
208 221 99 199 202 173 168 162 164 154 135 148 153 171 159 145 119 181 191 151 129 137 138 148 153 159 166 170 170 170 174 178 178 182 186 184 186 187 190 193 192 198 198 196 197 200 200 198 201 201 201 200 200 201 207 209 209 214 214 216 215 213 221 227 229 230 235 235 236 234 239 249 258 262 264 269 275 282 280 281 281 285 295 307 298 306 307 288 290 295 296 288 292 291 293 300 301
148 167 244 229 195 160 170 162 161 154 154 161 162 161 158 151 164 197 198 157 139 145 145 154 159 166 170 170 173 176 175 178 182 182 183 186 188 193 194 195 197 199 196 199 199 200 199 200 202 202 203 203 201 206 207 210 211 215 216 215 217 219 220 224 231 234 237 237 241 240 244 247 257 264 269 276 276 277 276 282 280 290 285 294 304 301 305 295 292 295 302 303 302 297 295 302 294
150 120 94 96 139 156 160 150 148 143 140 168 148 132 137 171 218 224 174 160 154 152 152 161 167 169 172 173 175 177 181 183 182 181 187 190 194 194 193 194 196 197 196 199 199 197 199 201 203 203 204 204 205 208 209 212 214 217 218 219 220 221 221 228 230 233 234 238 240 242 241 247 253 263 268 272 273 276 279 279 282 281 290 296 302 312 306 291 292 298 299 303 304 300 296 294 292
154 154 107 107 134 127 163 160 163 163 140 155 125 108 181 194 218 183 148 156 162 157 158 165 172 172 172 174 175 180 187 183 183 190 194 193 193 196 196 194 191 194 198 196 194 193 199 200 201 203 204 204 207 209 209 212 214 216 217 220 221 217 220 224 232 233 234 236 234 235 241 240 242 253 257 258 269 277 285 292 294 296 299 292 296 301 297 282 282 288 293 302 294 295 294 289 291
141 154 132 130 143 152 168 146 164 161 147 155 149 202 212 209 197 140 152 159 158 157 164 171 174 175 175 177 180 184 186 185 192 197 197 196 197 197 199 194 194 195 193 192 192 194 195 195 197 200 203 205 206 208 208 210 211 214 218 218 219 214 219 226 232 236 237 240 239 232 236 238 241 248 255 264 272 277 282 285 283 288 286 299 304 320 320 324 320 316 316 299 302 301 307 310 304
167 115 168 157 163 180 163 177 165 164 148 168 179 221 223 197 175 156 162 162 164 169 173 176 177 179 179 182 182 187 190 192 195 198 198 196 195 197 200 197 196 198 193 192 195 195 191 190 188 192 197 202 204 208 208 211 209 212 211 213 214 213 222 230 235 237 237 240 239 240 233 238 239 247 267 278 275 275 278 300 305 289 278 301 299 353 318 321 315 315 314 308 313 302 299 302 298
139 150 182 185 203 135 165 177 178 168 162 188 191 241 242 167 175 163 169 173 173 174 176 179 179 182 183 185 188 189 191 193 201 200 199 199 199 200 200 199 197 197 198 194 195 193 195 193 191 195 190 196 199 204 208 210 208 208 213 210 217 213 225 230 233 239 241 239 239 245 235 236 259 268 269 265 273 276 272 251 240 274 284 276 310 333 317 310 325 318 318 307 309 305 300 291 285
184 250 160 184 213 153 165 199 197 186 155 185 193 220 242 237 168 166 173 175 181 177 180 182 183 185 185 189 191 192 189 195 204 206 203 202 202 202 200 200 197 199 198 195 194 193 196 196 194 199 197 195 199 200 203 207 207 207 215 216 220 218 225 229 231 232 236 239 241 243 228 211 223 248 234 212 224 226 240 260 257 259 255 261 345 311 300 321 314 299 290 286 288 305 311 311 307
188 251 193 176 185 157 188 148 197 172 166 184 212 245 229 70 169 169 176 179 182 184 182 185 185 186 189 190 194 195 196 195 203 205 204 202 202 202 202 200 200 200 200 198 196 194 196 195 195 200 199 198 196 199 200 204 205 209 216 220 219 222 225 233 234 229 235 239 238 242 221 200 225 228 215 194 177 250 244 252 257 221 183 149 228 257 285 303 293 297 297 300 303 299 300 310 315
178 185 179 189 219 182 175 174 188 179 189 189 197 226 241 193 160 181 182 184 185 190 186 186 187 188 189 192 195 200 201 204 207 204 203 202 205 203 204 203 204 202 202 200 197 197 196 196 195 197 197 197 196 196 197 202 204 215 227 226 226 225 228 229 234 235 236 235 240 231 210 203 224 187 198 193 221 237 230 226 227 182 167 185 209 235 239 240 253 268 289 299 294 298 303 307 306
186 186 193 183 186 193 205 178 154 176 183 204 194 211 222 197 174 180 185 189 193 194 192 191 192 190 190 193 197 201 206 211 208 206 205 204 205 204 204 204 205 203 202 198 197 197 198 196 196 196 198 196 193 193 196 206 215 221 223 223 227 227 229 226 225 236 237 236 235 224 214 194 187 187 199 220 219 219 221 210 197 183 195 203 213 236 259 261 270 280 276 287 296 291 278 292 298
180 175 211 201 198 194 128 120 146 174 184 212 209 223 236 214 186 187 189 187 198 199 197 196 195 194 195 197 200 204 207 211 203 207 205 206 205 203 202 201 203 203 201 197 196 199 200 199 196 202 201 200 203 204 207 210 212 216 220 221 221 218 222 225 233 236 235 238 230 224 209 200 190 197 204 185 211 210 213 196 192 195 204 214 232 255 275 293 300 300 301 294 292 292 284 290 323
178 183 198 215 217 210 179 154 155 171 190 212 230 261 251 258 198 194 191 195 203 202 201 202 199 196 196 198 203 207 210 205 201 206 208 208 208 206 202 202 200 201 201 200 200 200 200 200 201 200 197 204 208 204 205 209 211 210 208 214 219 225 221 225 234 229 229 228 221 216 208 205 191 201 194 203 207 208 199 191 195 199 202 221 241 270 284 291 300 291 291 283 276 301 310 328 328
190 192 196 208 207 84 102 137 150 166 195 221 168 233 243 236 220 198 199 205 212 205 202 205 199 199 201 203 206 206 202 202 199 207 207 210 210 207 202 203 202 204 200 198 202 200 199 199 202 200 197 200 204 204 206 205 203 206 208 213 211 225 230 238 245 247 224 219 203 204 207 199 197 199 196 205 212 208 203 197 201 200 207 219 246 265 283 295 304 304 302 304 312 278 296 336 330
184 183 177 213 172 181 183 172 157 169 188 227 180 231 247 233 221 215 211 213 219 215 210 207 204 204 204 204 201 202 203 201 204 205 207 207 207 206 204 203 203 202 201 200 200 201 199 200 200 199 201 200 200 197 201 205 202 200 208 227 218 229 237 217 223 216 221 209 211 200 204 206 203 215 207 209 212 208 205 209 211 212 220 229 260 275 286 294 279 277 288 295 301 300 289 27 24
191 195 200 199 147 199 217 157 145 141 68 78 116 240 260 217 221 217 215 213 221 216 211 216 215 217 218 215 210 205 204 203 205 205 207 204 203 205 202 202 202 202 202 201 199 199 198 200 200 198 199 200 201 196 197 195 188 195 200 209 217 213 213 231 214 221 217 224 235 223 216 206 203 211 208 209 212 210 208 215 221 227 237 199 232 262 270 297 315 323 321 304 303 303 298 294 150
193 219 211 202 179 184 115 132 139 183 211 204 190 260 256 200 215 226 196 196 217 213 213 217 215 215 214 214 213 212 214 209 203 203 204 203 202 200 201 199 201 205 206 204 199 199 197 199 199 197 199 199 200 198 194 187 190 192 196 213 215 218 226 220 213 213 201 208 236 238 197 199 199 200 201 206 208 210 208 213 227 228 201 183 216 243 262 258 246 255 327 308 287 273 297 270 256
192 201 197 186 179 172 159 164 171 194 223 187 185 222 252 126 217 217 193 200 213 208 220 222 216 215 215 213 213 212 210 212 214 212 206 205 206 202 200 199 202 207 208 202 199 200 198 198 196 194 198 200 200 196 190 188 192 198 197 202 210 216 221 226 206 213 216 202 214 201 189 184 190 196 195 200 203 205 214 203 191 188 188 197 197 209 223 239 237 208 157 240 268 221 243 276 297
207 124 174 176 166 168 169 174 191 210 90 104 185 205 245 264 235 182 190 208 213 212 220 223 221 214 215 214 212 211 210 209 207 209 207 205 203 202 203 200 200 206 204 199 199 199 197 198 194 195 197 199 196 191 190 191 196 197 200 205 207 210 212 216 184 194 186 180 196 198 176 176 176 191 182 178 183 179 173 169 175 178 182 188 206 215 230 223 192 187 196 207 221 238 261 290 290
199 151 170 177 183 183 175 185 201 189 189 198 192 157 243 256 244 109 175 206 218 222 222 221 220 219 214 213 212 212 212 208 205 204 207 205 205 204 201 197 201 201 199 196 197 197 196 198 195 195 197 198 197 191 190 195 198 197 198 202 212 213 214 214 182 176 173 178 190 172 176 164 169 173 173 169 170 171 173 176 177 179 183 187 207 221 219 194 199 190 186 199 203 184 229 247 261
160 101 92 99 125 167 181 194 197 136 199 219 189 179 221 248 223 137 172 222 226 224 221 221 216 213 213 210 211 212 209 209 209 211 206 206 206 205 204 203 198 198 198 194 196 196 195 192 193 193 198 198 196 192 194 196 199 198 199 202 206 206 199 198 179 175 174 174 183 177 174 169 172 172 176 176 172 179 182 180 185 191 197 198 209 226 193 182 192 198 197 196 181 188 195 226 255
124 127 114 106 92 116 61 25 115 130 220 230 186 188 206 253 237 187 157 215 215 223 222 223 220 217 216 214 209 205 203 201 204 209 209 207 206 204 197 196 200 198 196 191 195 196 194 193 193 194 199 195 193 192 194 198 198 201 204 204 205 207 195 191 184 181 175 176 185 180 180 180 177 179 180 178 185 182 186 187 197 198 202 189 201 202 212 215 200 204 182 166 180 212 207 218 233
156 143 138 123 87 110 114 90 182 204 221 235 201 193 203 234 245 169 211 218 212 212 218 216 211 211 212 210 211 208 202 196 198 202 207 207 199 197 194 202 198 193 191 193 198 195 194 193 191 195 197 196 193 193 195 200 199 203 206 202 203 205 194 192 195 189 180 186 186 183 182 179 183 180 184 179 187 190 185 192 198 198 193 193 199 204 214 218 210 193 183 190 179 182 203 222 236
197 155 156 184 160 177 185 155 199 209 219 141 194 176 212 235 251 256 214 242 235 225 229 223 209 210 210 207 206 204 197 195 197 198 198 198 194 192 197 201 192 189 193 194 197 197 194 192 192 194 200 195 194 192 195 198 199 202 202 202 203 202 198 196 196 194 179 185 185 183 179 187 180 183 187 189 191 188 186 192 192 197 196 197 202 196 201 203 201 198 199 202 198 201 204 216 231
188 183 167 186 169 191 195 174 7 242 269 229 64 177 234 297 271 252 255 247 236 232 231 238 235 221 211 208 203 202 198 200 198 195 198 198 192 192 194 193 188 190 194 194 195 195 191 191 192 197 201 193 192 193 196 197 201 201 199 198 199 197 200 196 196 195 183 187 183 186 185 188 184 190 187 194 192 189 192 196 195 197 199 200 202 200 205 205 206 210 212 220 221 220 220 232 253
198 188 178 201 180 188 193 170 199 201 207 100 126 160 221 179 210 176 229 244 259 241 234 237 225 226 215 213 207 204 204 202 192 191 195 196 193 193 192 189 188 191 193 193 193 193 188 191 192 196 199 195 192 194 194 198 199 199 198 199 197 197 197 194 197 191 180 186 186 187 186 187 187 191 191 192 185 188 193 195 197 199 198 203 206 208 209 213 213 217 220 229 233 226 231 232 248
191 186 213 206 208 112 227 157 205 177 155 165 170 225 164 214 344 291 247 273 266 257 245 213 213 204 187 191 195 197 202 203 199 201 201 199 193 191 192 190 190 191 191 191 191 189 192 195 194 195 196 193 192 193 197 197 197 196 196 196 198 195 194 192 187 183 183 184 178 184 186 187 192 187 189 187 186 192 193 195 197 203 202 208 211 216 217 219 215 219 223 223 231 216 233 234 245
152 165 210 207 120 183 81 60 21 62 189 225 153 252 249 298 282 266 260 246 259 236 239 226 218 198 181 197 193 196 199 199 196 199 199 195 191 192 192 190 192 192 189 190 191 191 194 192 192 194 196 194 190 193 196 193 194 195 197 195 194 193 194 192 190 186 186 183 178 183 184 190 189 185 185 188 187 190 194 196 198 205 208 213 217 219 222 225 221 222 228 228 235 232 230 243 251
116 205 197 79 15 323 189 222 130 214 221 204 173 210 228 185 248 176 292 243 253 246 224 228 204 173 197 207 193 192 196 195 193 194 194 191 193 191 192 193 192 190 190 192 193 192 193 191 191 191 192 195 196 195 194 191 192 198 196 195 194 192 192 190 184 178 172 169 175 184 185 183 190 187 184 182 186 187 190 193 201 207 215 217 220 221 220 223 219 228 232 238 245 246 244 248 249
219 230 132 184 170 203 146 196 201 185 214 220 190 226 243 205 228 214 245 231 250 257 245 210 193 199 211 209 200 197 196 192 194 200 198 196 195 194 194 195 193 191 190 191 192 188 188 192 194 194 194 198 195 192 192 192 195 197 197 195 202 189 187 182 177 170 162 171 179 185 193 191 186 180 181 180 187 191 190 192 202 212 215 218 218 222 220 224 222 237 240 248 245 240 250 258 256
42 116 177 0 199 193 172 198 127 194 233 205 216 183 227 194 222 204 238 245 248 265 262 212 217 206 208 208 201 193 189 191 193 196 195 195 196 195 194 192 191 191 190 194 191 189 194 196 193 197 200 196 191 187 187 193 197 197 189 187 197 183 180 177 171 166 169 178 181 184 191 189 187 179 183 182 190 195 193 198 204 214 220 222 221 224 224 227 228 241 252 256 257 249 255 261 268
184 197 187 185 221 349 287 151 208 200 216 208 230 217 202 184 207 217 224 230 233 240 255 244 223 217 214 205 193 188 194 193 192 193 194 194 196 197 197 194 194 193 192 191 191 193 198 198 197 197 194 193 193 193 192 196 195 195 198 190 188 184 181 173 162 163 171 179 180 186 190 187 171 178 177 184 189 192 192 198 205 210 220 221 224 230 222 224 228 238 242 252 257 248 251 258 261
200 201 199 195 167 173 196 216 102 216 207 195 197 240 156 184 186 207 218 221 225 230 241 258 256 234 218 208 197 192 193 193 192 194 194 195 193 192 190 188 188 187 188 189 192 196 198 198 201 198 200 198 198 196 196 193 190 194 207 202 170 167 167 161 163 173 180 176 180 185 179 166 180 177 177 185 186 185 191 194 203 209 214 224 229 233 234 223 228 234 241 239 244 241 243 254 257